| time (UTC) | temp F | wind direction | speed knots | gust knots | rain 1hr in | rain 24hr in | rain mn in | humidity % | barometer mb |
| 20260510081728 | 51 | 331 | 0.0 | 0.0 | 0.00 | 0.00 | 0.00 | 88 | 1017.1 |
| 20260510081236 | 51 | 331 | 0.0 | 0.0 | 0.00 | 0.00 | 0.00 | 88 | 1017.0 |
| 20260510080724 | 51 | 331 | 0.0 | 0.0 | 0.00 | 0.00 | 0.00 | 88 | 1017.1 |
| 20260510080312 | 52 | 331 | 0.0 | 0.0 | 0.00 | 0.00 | 0.00 | 88 | 1017.2 |
| 20260510075807 | 52 | 331 | 0.0 | 0.0 | 0.00 | 0.00 | 0.00 | 88 | 1017.3 |
| 20260510075224 | 52 | 331 | 0.0 | 0.0 | 0.00 | 0.00 | 0.00 | 88 | 1017.3 |
| 20260510074732 | 52 | 331 | 0.0 | 0.0 | 0.00 | 0.00 | 0.00 | 88 | 1017.0 |
| 20260510074240 | 52 | 351 | 0.0 | 0.0 | 0.00 | 0.00 | 0.00 | 88 | 1017.0 |
| 20260510073728 | 52 | 351 | 0.0 | 0.0 | 0.00 | 0.00 | 0.00 | 87 | 1017.0 |
| 20260510073255 | 52 | 351 | 0.0 | 0.0 | 0.00 | 0.00 | 0.00 | 87 | 1017.2 |
| 20260510072735 | 52 | 351 | 0.0 | 0.0 | 0.00 | 0.00 | 0.00 | 87 | 1017.2 |
| 20260510072305 | 53 | 351 | 0.0 | 0.0 | 0.00 | 0.00 | 0.00 | 86 | 1017.1 |
| 20260510072231 | 53 | 351 | 0.0 | 0.0 | 0.00 | 0.00 | 0.00 | 86 | 1017.1 |
| 20260510071739 | 53 | 355 | 0.0 | 0.0 | 0.00 | 0.00 | 0.00 | 86 | 1017.2 |
| 20260510071227 | 53 | 351 | 0.0 | 0.0 | 0.00 | 0.00 | 0.00 | 86 | 1017.2 |
| 20260510070735 | 53 | 351 | 0.0 | 0.0 | 0.00 | 0.00 | 0.00 | 85 | 1017.2 |
| 20260510070223 | 53 | 351 | 0.0 | 0.0 | 0.00 | 0.00 | 0.00 | 85 | 1017.2 |
| 20260510065730 | 53 | 351 | 0.0 | 0.0 | 0.00 | 0.00 | 0.00 | 84 | 1017.3 |
| 20260510065238 | 54 | 351 | 0.0 | 0.0 | 0.00 | 0.00 | 0.00 | 84 | 1017.2 |
| 20260510064726 | 54 | 351 | 0.0 | 0.0 | 0.00 | 0.00 | 0.00 | 83 | 1017.3 |
| 20260510064254 | 54 | 355 | 0.0 | 0.0 | 0.00 | 0.00 | 0.00 | 83 | 1017.2 |
| 20260510063730 | 54 | 351 | 0.0 | 0.0 | 0.00 | 0.00 | 0.00 | 82 | 1017.4 |
| 20260510063222 | 55 | 351 | 0.0 | 0.0 | 0.00 | 0.00 | 0.00 | 82 | 1017.5 |
| 20260510062729 | 55 | 351 | 0.0 | 0.0 | 0.00 | 0.00 | 0.00 | 82 | 1017.5 |
| 20260510062237 | 55 | 319 | 0.0 | 0.0 | 0.00 | 0.00 | 0.00 | 82 | 1017.5 |
| 20260510061725 | 55 | 319 | 0.0 | 0.0 | 0.00 | 0.00 | 0.00 | 81 | 1017.5 |
| 20260510061253 | 55 | 319 | 0.0 | 0.0 | 0.00 | 0.00 | 0.00 | 81 | 1017.4 |
| 20260510060730 | 56 | 319 | 0.0 | 0.0 | 0.00 | 0.00 | 0.00 | 81 | 1017.4 |
| 20260510060237 | 56 | 319 | 0.0 | 0.0 | 0.00 | 0.00 | 0.00 | 80 | 1017.5 |
| 20260510055804 | 56 | 319 | 0.0 | 0.0 | 0.00 | 0.00 | 0.00 | 80 | 1017.5 |
| 20260510055732 | 56 | 319 | 0.0 | 0.0 | 0.00 | 0.00 | 0.00 | 80 | 1017.5 |
| 20260510055240 | 56 | 319 | 0.0 | 0.0 | 0.00 | 0.00 | 0.00 | 80 | 1017.4 |
| 20260510054807 | 56 | 319 | 0.0 | 0.0 | 0.00 | 0.00 | 0.00 | 80 | 1017.3 |
| 20260510054303 | 56 | 319 | 0.0 | 0.0 | 0.00 | 0.00 | 0.00 | 79 | 1017.3 |
| 20260510053740 | 56 | 319 | 0.0 | 0.0 | 0.00 | 0.00 | 0.00 | 79 | 1017.3 |
| 20260510053228 | 57 | 319 | 0.0 | 0.0 | 0.00 | 0.00 | 0.00 | 78 | 1017.2 |
| 20260510052735 | 57 | 319 | 0.0 | 0.0 | 0.00 | 0.00 | 0.00 | 77 | 1017.2 |
| 20260510052227 | 57 | 319 | 0.0 | 0.0 | 0.00 | 0.00 | 0.00 | 77 | 1017.2 |
| 20260510051735 | 57 | 319 | 0.0 | 0.0 | 0.00 | 0.00 | 0.00 | 76 | 1017.1 |
| 20260510051223 | 58 | 319 | 0.0 | 0.0 | 0.00 | 0.00 | 0.00 | 76 | 1017.2 |
| 20260510050811 | 58 | 319 | 0.0 | 0.0 | 0.00 | 0.00 | 0.00 | 75 | 1017.0 |
| 20260510050227 | 58 | 319 | 0.0 | 0.0 | 0.00 | 0.00 | 0.00 | 75 | 1017.0 |
| 20260510045754 | 58 | 319 | 0.0 | 0.0 | 0.00 | 0.00 | 0.00 | 74 | 1017.2 |
| 20260510045230 | 59 | 319 | 0.0 | 0.0 | 0.00 | 0.00 | 0.00 | 74 | 1017.1 |
| 20260510044738 | 59 | 319 | 0.0 | 0.0 | 0.00 | 0.00 | 0.00 | 73 | 1017.1 |
| 20260510044306 | 59 | 319 | 0.0 | 0.0 | 0.00 | 0.00 | 0.00 | 72 | 1017.0 |
| 20260510044234 | 59 | 319 | 0.0 | 0.0 | 0.00 | 0.00 | 0.00 | 72 | 1017.0 |
| 20260510043722 | 59 | 319 | 0.0 | 0.0 | 0.00 | 0.00 | 0.00 | 72 | 1017.1 |
| 20260510043230 | 59 | 319 | 0.0 | 0.0 | 0.00 | 0.00 | 0.00 | 71 | 1017.2 |
| 20260510042757 | 60 | 319 | 0.0 | 0.0 | 0.00 | 0.00 | 0.00 | 71 | 1017.2 |
| 20260510042725 | 60 | 319 | 0.0 | 0.0 | 0.00 | 0.00 | 0.00 | 71 | 1017.2 |
| 20260510042252 | 60 | 319 | 0.0 | 0.0 | 0.00 | 0.00 | 0.00 | 70 | 1017.1 |
| 20260510042221 | 60 | 319 | 0.0 | 0.0 | 0.00 | 0.00 | 0.00 | 70 | 1017.1 |
| 20260510041729 | 60 | 319 | 0.0 | 0.0 | 0.00 | 0.00 | 0.00 | 70 | 1017.1 |
| 20260510041237 | 61 | 319 | 0.0 | 0.0 | 0.00 | 0.00 | 0.00 | 69 | 1017.0 |
| 20260510040728 | 61 | 319 | 0.0 | 0.0 | 0.00 | 0.00 | 0.00 | 68 | 1017.0 |
| 20260510040305 | 61 | 319 | 0.0 | 0.0 | 0.00 | 0.00 | 0.00 | 68 | 1016.8 |
| 20260510035724 | 61 | 319 | 0.0 | 0.0 | 0.00 | 0.00 | 0.00 | 67 | 1016.9 |
| 20260510035232 | 62 | 319 | 0.0 | 0.0 | 0.00 | 0.00 | 0.00 | 66 | 1016.8 |
| 20260510034740 | 62 | 319 | 0.0 | 0.0 | 0.00 | 0.00 | 0.00 | 66 | 1016.9 |
| 20260510034228 | 62 | 319 | 0.0 | 0.0 | 0.00 | 0.00 | 0.00 | 65 | 1016.9 |
| 20260510033755 | 63 | 319 | 0.0 | 0.0 | 0.00 | 0.00 | 0.00 | 64 | 1016.9 |
| 20260510033231 | 63 | 319 | 0.0 | 0.0 | 0.00 | 0.00 | 0.00 | 64 | 1017.0 |
| 20260510032738 | 63 | 319 | 0.0 | 0.0 | 0.00 | 0.00 | 0.00 | 64 | 1017.1 |
| 20260510032306 | 64 | 319 | 0.0 | 0.0 | 0.00 | 0.00 | 0.00 | 63 | 1017.1 |
| 20260510031802 | 64 | 319 | 0.0 | 0.0 | 0.00 | 0.00 | 0.00 | 63 | 1017.2 |
| 20260510031730 | 64 | 319 | 0.0 | 0.0 | 0.00 | 0.00 | 0.00 | 63 | 1017.2 |
| 20260510031233 | 64 | 319 | 0.0 | 0.0 | 0.00 | 0.00 | 0.00 | 62 | 1017.3 |
| 20260510030721 | 65 | 319 | 0.0 | 0.0 | 0.00 | 0.00 | 0.00 | 60 | 1017.3 |
| 20260510030229 | 65 | 319 | 0.0 | 0.0 | 0.00 | 0.00 | 0.00 | 58 | 1017.1 |
| 20260510025736 | 66 | 319 | 0.0 | 0.0 | 0.00 | 0.00 | 0.00 | 59 | 1017.3 |
| 20260510025306 | 66 | 319 | 0.0 | 0.0 | 0.00 | 0.00 | 0.00 | 58 | 1017.3 |
| 20260510025232 | 66 | 319 | 0.0 | 0.0 | 0.00 | 0.00 | 0.00 | 58 | 1017.3 |
| 20260510024724 | 66 | 319 | 0.0 | 0.0 | 0.00 | 0.00 | 0.00 | 56 | 1017.4 |
| 20260510024232 | 67 | 319 | 0.0 | 0.0 | 0.00 | 0.00 | 0.00 | 56 | 1017.5 |
| 20260510023800 | 67 | 319 | 0.0 | 0.0 | 0.00 | 0.00 | 0.00 | 55 | 1017.5 |
| 20260510023728 | 67 | 319 | 0.0 | 0.0 | 0.00 | 0.00 | 0.00 | 55 | 1017.5 |
| 20260510023255 | 67 | 321 | 0.0 | 0.9 | 0.00 | 0.00 | 0.00 | 55 | 1017.4 |
| 20260510022731 | 67 | 341 | 0.0 | 1.7 | 0.00 | 0.00 | 0.00 | 54 | 1017.4 |
| 20260510022239 | 68 | 5 | 0.0 | 2.6 | 0.00 | 0.00 | 0.00 | 54 | 1017.4 |
| 20260510021727 | 68 | 57 | 0.9 | 2.6 | 0.00 | 0.00 | 0.00 | 53 | 1017.4 |
| 20260510021235 | 68 | 355 | 0.0 | 1.7 | 0.00 | 0.00 | 0.00 | 53 | 1017.5 |
| 20260510020723 | 68 | 355 | 0.0 | 2.6 | 0.00 | 0.00 | 0.00 | 53 | 1017.5 |
| 20260510020231 | 68 | 291 | 0.9 | 2.6 | 0.00 | 0.00 | 0.00 | 53 | 1017.6 |
| 20260510015738 | 68 | 32 | 0.0 | 1.7 | 0.00 | 0.00 | 0.00 | 52 | 1017.8 |
| 20260510015230 | 68 | 325 | 0.9 | 1.7 | 0.00 | 0.00 | 0.00 | 52 | 1018.0 |
| 20260510014758 | 68 | 344 | 0.0 | 2.6 | 0.00 | 0.00 | 0.00 | 53 | 1018.0 |
| 20260510014234 | 68 | 295 | 0.9 | 2.6 | 0.00 | 0.00 | 0.00 | 52 | 1018.0 |
| 20260510013802 | 68 | 302 | 0.9 | 2.6 | 0.00 | 0.00 | 0.00 | 52 | 1018.2 |
| 20260510013730 | 68 | 302 | 0.9 | 2.6 | 0.00 | 0.00 | 0.00 | 52 | 1018.2 |
| 20260510013258 | 68 | 9 | 0.9 | 2.6 | 0.00 | 0.00 | 0.00 | 52 | 1018.3 |
| 20260510012734 | 68 | 299 | 0.9 | 3.5 | 0.00 | 0.00 | 0.00 | 52 | 1018.1 |
| 20260510012221 | 69 | 350 | 1.7 | 3.5 | 0.00 | 0.00 | 0.00 | 51 | 1018.2 |
| 20260510011729 | 68 | 329 | 1.7 | 5.2 | 0.00 | 0.00 | 0.00 | 51 | 1018.4 |
| 20260510011257 | 68 | 313 | 1.7 | 5.2 | 0.00 | 0.00 | 0.00 | 51 | 1018.4 |
| 20260510010733 | 68 | 340 | 0.9 | 2.6 | 0.00 | 0.00 | 0.00 | 52 | 1018.3 |
| 20260510010241 | 68 | 26 | 0.9 | 2.6 | 0.00 | 0.00 | 0.00 | 52 | 1018.4 |
| 20260510005808 | 68 | 323 | 1.7 | 2.6 | 0.00 | 0.00 | 0.00 | 52 | 1018.5 |
| 20260510005736 | 68 | 323 | 1.7 | 2.6 | 0.00 | 0.00 | 0.00 | 52 | 1018.5 |
| 20260510005225 | 68 | 331 | 0.9 | 3.5 | 0.00 | 0.00 | 0.00 | 51 | 1018.5 |
| 20260510004812 | 68 | 259 | 1.7 | 4.3 | 0.00 | 0.00 | 0.00 | 52 | 1018.6 |
| 20260510004740 | 68 | 259 | 1.7 | 4.3 | 0.00 | 0.00 | 0.00 | 52 | 1018.6 |
| 20260510004228 | 68 | 276 | 2.6 | 5.2 | 0.00 | 0.00 | 0.00 | 50 | 1018.6 |
| 20260510003756 | 68 | 304 | 0.9 | 5.2 | 0.00 | 0.00 | 0.00 | 52 | 1018.5 |
| 20260510003724 | 68 | 304 | 0.9 | 5.2 | 0.00 | 0.00 | 0.00 | 52 | 1018.5 |
| 20260510003232 | 69 | 360 | 0.9 | 2.6 | 0.00 | 0.00 | 0.00 | 51 | 1018.5 |
| 20260510002723 | 69 | 14 | 0.0 | 3.5 | 0.00 | 0.00 | 0.00 | 52 | 1018.6 |
| 20260510002231 | 68 | 281 | 0.9 | 3.5 | 0.00 | 0.00 | 0.00 | 52 | 1018.7 |
| 20260510001759 | 68 | 335 | 1.7 | 3.5 | 0.00 | 0.00 | 0.00 | 51 | 1018.7 |
| 20260510001256 | 68 | 21 | 0.9 | 3.5 | 0.00 | 0.00 | 0.00 | 51 | 1018.9 |
| 20260510001224 | 68 | 21 | 0.9 | 3.5 | 0.00 | 0.00 | 0.00 | 51 | 1018.9 |
| 20260510000812 | 69 | 329 | 0.9 | 4.3 | 0.00 | 0.00 | 0.00 | 50 | 1018.9 |
| 20260510000740 | 69 | 329 | 0.9 | 4.3 | 0.00 | 0.00 | 0.00 | 50 | 1018.9 |
| 20260510000228 | 69 | 291 | 1.7 | 4.3 | 0.00 | 0.00 | 0.00 | 50 | 1019.0 |
| 20260509235735 | 69 | 13 | 0.9 | 4.3 | 0.00 | 0.00 | 0.00 | 49 | 1019.0 |
| 20260509235306 | 69 | 331 | 0.9 | 3.5 | 0.00 | 0.00 | 0.00 | 50 | 1019.1 |
| 20260509234759 | 69 | 24 | 1.7 | 3.5 | 0.00 | 0.00 | 0.00 | 51 | 1019.2 |
| 20260509234727 | 69 | 24 | 1.7 | 3.5 | 0.00 | 0.00 | 0.00 | 51 | 1019.2 |
| 20260509234235 | 69 | 55 | 1.7 | 3.5 | 0.00 | 0.00 | 0.00 | 50 | 1019.3 |
| 20260509233803 | 69 | 284 | 1.7 | 3.5 | 0.00 | 0.00 | 0.00 | 49 | 1019.4 |
| 20260509233239 | 69 | 11 | 1.7 | 3.5 | 0.00 | 0.00 | 0.00 | 49 | 1019.1 |
| 20260509232725 | 69 | 66 | 0.9 | 3.5 | 0.00 | 0.00 | 0.00 | 50 | 1019.3 |
| 20260509232233 | 68 | 280 | 1.7 | 5.2 | 0.00 | 0.00 | 0.00 | 49 | 1019.4 |
| 20260509231721 | 68 | 236 | 2.6 | 6.1 | 0.00 | 0.00 | 0.00 | 49 | 1019.4 |
| 20260509231229 | 68 | 290 | 2.6 | 6.1 | 0.00 | 0.00 | 0.00 | 49 | 1019.4 |
| 20260509230736 | 68 | 38 | 2.6 | 9.6 | 0.00 | 0.00 | 0.00 | 49 | 1019.6 |
| 20260509230228 | 69 | 234 | 1.7 | 7.0 | 0.00 | 0.00 | 0.00 | 49 | 1019.7 |
| 20260509225735 | 69 | 334 | 0.9 | 5.2 | 0.00 | 0.00 | 0.00 | 49 | 1019.7 |
| 20260509225223 | 69 | 270 | 0.9 | 7.0 | 0.00 | 0.00 | 0.00 | 50 | 1020.0 |
| 20260509224731 | 69 | 259 | 0.9 | 7.0 | 0.00 | 0.00 | 0.00 | 50 | 1020.1 |
| 20260509224259 | 69 | 360 | 1.7 | 4.3 | 0.00 | 0.00 | 0.00 | 50 | 1020.0 |
| 20260509223734 | 69 | 327 | 1.7 | 4.3 | 0.00 | 0.00 | 0.00 | 50 | 1019.9 |
| 20260509223222 | 69 | 305 | 1.7 | 5.2 | 0.00 | 0.00 | 0.00 | 50 | 1020.1 |
| 20260509222729 | 68 | 336 | 1.7 | 7.0 | 0.00 | 0.00 | 0.00 | 51 | 1020.1 |
| 20260509222237 | 68 | 233 | 2.6 | 7.0 | 0.00 | 0.00 | 0.00 | 51 | 1020.1 |
| 20260509221805 | 68 | 265 | 1.7 | 7.0 | 0.00 | 0.00 | 0.00 | 52 | 1020.2 |
| 20260509221733 | 68 | 265 | 1.7 | 7.0 | 0.00 | 0.00 | 0.00 | 52 | 1020.2 |
| 20260509221221 | 68 | 279 | 3.5 | 7.0 | 0.00 | 0.00 | 0.00 | 52 | 1020.2 |
| 20260509220733 | 68 | 350 | 1.7 | 8.7 | 0.00 | 0.00 | 0.00 | 52 | 1020.1 |
| 20260509220241 | 68 | 348 | 3.5 | 8.7 | 0.00 | 0.00 | 0.00 | 51 | 1020.3 |
| 20260509215728 | 68 | 240 | 1.7 | 6.1 | 0.00 | 0.00 | 0.00 | 53 | 1020.3 |
| 20260509215256 | 68 | 236 | 1.7 | 4.3 | 0.00 | 0.00 | 0.00 | 52 | 1020.2 |
| 20260509215224 | 68 | 236 | 1.7 | 4.3 | 0.00 | 0.00 | 0.00 | 52 | 1020.2 |
| 20260509214732 | 69 | 300 | 2.6 | 4.3 | 0.00 | 0.00 | 0.00 | 52 | 1020.2 |
| 20260509214240 | 69 | 326 | 1.7 | 4.3 | 0.00 | 0.00 | 0.00 | 50 | 1020.3 |
| 20260509213728 | 69 | 9 | 1.7 | 4.3 | 0.00 | 0.00 | 0.00 | 51 | 1020.3 |
| 20260509213236 | 68 | 342 | 1.7 | 5.2 | 0.00 | 0.00 | 0.00 | 53 | 1020.3 |
| 20260509212723 | 68 | 265 | 1.7 | 5.2 | 0.00 | 0.00 | 0.00 | 51 | 1020.4 |
| 20260509212230 | 68 | 255 | 1.7 | 4.3 | 0.00 | 0.00 | 0.00 | 51 | 1020.6 |
| 20260509211722 | 68 | 228 | 0.9 | 6.1 | 0.00 | 0.00 | 0.00 | 51 | 1020.6 |
| 20260509211230 | 68 | 302 | 1.7 | 4.3 | 0.00 | 0.00 | 0.00 | 51 | 1020.5 |
| 20260509210738 | 68 | 21 | 1.7 | 4.3 | 0.00 | 0.00 | 0.00 | 52 | 1020.5 |
| 20260509210226 | 68 | 270 | 1.7 | 4.3 | 0.00 | 0.00 | 0.00 | 52 | 1020.6 |
| 20260509205732 | 68 | 347 | 1.7 | 5.2 | 0.00 | 0.00 | 0.00 | 52 | 1020.5 |
| 20260509205239 | 68 | 347 | 3.5 | 5.2 | 0.00 | 0.00 | 0.00 | 52 | 1020.5 |
| 20260509204807 | 68 | 321 | 1.7 | 4.3 | 0.00 | 0.00 | 0.00 | 53 | 1020.6 |
| 20260509204224 | 67 | 257 | 0.0 | 5.2 | 0.00 | 0.00 | 0.00 | 53 | 1020.7 |
| 20260509203732 | 67 | 317 | 1.7 | 6.1 | 0.00 | 0.00 | 0.00 | 53 | 1020.7 |
| 20260509203240 | 67 | 192 | 1.7 | 6.1 | 0.00 | 0.00 | 0.00 | 55 | 1020.8 |
| 20260509202726 | 67 | 117 | 0.9 | 7.8 | 0.00 | 0.00 | 0.00 | 53 | 1020.8 |
| 20260509202238 | 67 | 291 | 2.6 | 7.8 | 0.00 | 0.00 | 0.00 | 53 | 1020.9 |
| 20260509201726 | 67 | 348 | 2.6 | 7.0 | 0.00 | 0.00 | 0.00 | 54 | 1020.9 |
| 20260509201234 | 67 | 346 | 1.7 | 7.0 | 0.00 | 0.00 | 0.00 | 54 | 1021.0 |
| 20260509200722 | 67 | 262 | 2.6 | 7.0 | 0.00 | 0.00 | 0.00 | 55 | 1021.2 |
| 20260509200229 | 67 | 288 | 1.7 | 2.6 | 0.00 | 0.00 | 0.00 | 55 | 1021.2 |
| 20260509195736 | 66 | 306 | 0.9 | 5.2 | 0.00 | 0.00 | 0.00 | 55 | 1021.2 |
| 20260509195224 | 66 | 67 | 1.7 | 5.2 | 0.00 | 0.00 | 0.00 | 56 | 1021.4 |
| 20260509194732 | 66 | 254 | 0.9 | 7.0 | 0.00 | 0.00 | 0.00 | 56 | 1021.6 |
| 20260509194300 | 66 | 253 | 3.5 | 6.1 | 0.00 | 0.00 | 0.00 | 56 | 1021.6 |
| 20260509193737 | 66 | 246 | 0.9 | 8.7 | 0.00 | 0.00 | 0.00 | 60 | 1021.6 |
| 20260509193304 | 65 | 234 | 3.5 | 8.7 | 0.00 | 0.00 | 0.00 | 56 | 1021.6 |
| 20260509192724 | 65 | 336 | 2.6 | 5.2 | 0.00 | 0.00 | 0.00 | 57 | 1021.7 |
| 20260509192232 | 65 | 313 | 1.7 | 5.2 | 0.00 | 0.00 | 0.00 | 56 | 1021.8 |
| 20260509191740 | 65 | 315 | 2.6 | 6.1 | 0.00 | 0.00 | 0.00 | 58 | 1021.9 |
| 20260509191228 | 65 | 255 | 3.5 | 6.1 | 0.00 | 0.00 | 0.00 | 57 | 1021.9 |
| 20260509190736 | 65 | 55 | 1.7 | 7.0 | 0.00 | 0.00 | 0.00 | 58 | 1021.8 |
| 20260509190224 | 65 | 277 | 2.6 | 7.0 | 0.00 | 0.00 | 0.00 | 57 | 1021.8 |
| 20260509185731 | 65 | 26 | 1.7 | 7.0 | 0.00 | 0.00 | 0.00 | 57 | 1021.9 |
| 20260509185239 | 66 | 342 | 0.9 | 6.1 | 0.00 | 0.00 | 0.00 | 58 | 1021.9 |
| 20260509184807 | 66 | 9 | 0.9 | 4.3 | 0.00 | 0.00 | 0.00 | 60 | 1021.9 |
| 20260509184735 | 66 | 9 | 0.9 | 4.3 | 0.00 | 0.00 | 0.00 | 60 | 1021.9 |
| 20260509184303 | 65 | 31 | 0.9 | 4.3 | 0.00 | 0.00 | 0.00 | 58 | 1021.9 |
| 20260509184231 | 65 | 31 | 0.9 | 4.3 | 0.00 | 0.00 | 0.00 | 58 | 1021.9 |
| 20260509183759 | 65 | 336 | 1.7 | 4.3 | 0.00 | 0.00 | 0.00 | 60 | 1022.0 |
| 20260509183727 | 65 | 336 | 1.7 | 4.3 | 0.00 | 0.00 | 0.00 | 60 | 1022.0 |
| 20260509183235 | 64 | 319 | 0.0 | 4.3 | 0.00 | 0.00 | 0.00 | 60 | 1021.9 |
| 20260509182722 | 64 | 296 | 1.7 | 4.3 | 0.00 | 0.00 | 0.00 | 61 | 1022.0 |
| 20260509182234 | 64 | 270 | 0.9 | 3.5 | 0.00 | 0.00 | 0.00 | 60 | 1022.0 |
| 20260509181802 | 64 | 302 | 1.7 | 4.3 | 0.00 | 0.00 | 0.00 | 61 | 1022.0 |
| 20260509181730 | 64 | 302 | 1.7 | 4.3 | 0.00 | 0.00 | 0.00 | 61 | 1022.0 |
| 20260509181238 | 63 | 263 | 1.7 | 4.3 | 0.00 | 0.00 | 0.00 | 61 | 1022.0 |
| 20260509180726 | 63 | 314 | 0.9 | 6.1 | 0.00 | 0.00 | 0.00 | 62 | 1022.2 |
| 20260509180234 | 63 | 327 | 0.9 | 6.1 | 0.00 | 0.00 | 0.00 | 62 | 1022.1 |
| 20260509175721 | 63 | 48 | 1.7 | 3.5 | 0.00 | 0.00 | 0.00 | 63 | 1022.2 |
| 20260509175309 | 62 | 350 | 1.7 | 4.3 | 0.00 | 0.00 | 0.00 | 64 | 1022.2 |
| 20260509175237 | 62 | 350 | 1.7 | 4.3 | 0.00 | 0.00 | 0.00 | 64 | 1022.2 |
| 20260509174725 | 62 | 32 | 2.6 | 4.3 | 0.00 | 0.00 | 0.00 | 64 | 1022.3 |
| 20260509174233 | 62 | 279 | 2.6 | 4.3 | 0.00 | 0.00 | 0.00 | 65 | 1022.1 |
| 20260509173721 | 62 | 360 | 2.6 | 6.1 | 0.00 | 0.00 | 0.00 | 67 | 1022.2 |
| 20260509173309 | 62 | 234 | 2.6 | 6.1 | 0.00 | 0.00 | 0.00 | 68 | 1022.2 |
| 20260509172725 | 61 | 292 | 1.7 | 4.3 | 0.00 | 0.00 | 0.00 | 68 | 1022.1 |
| 20260509172252 | 61 | 292 | 0.0 | 7.0 | 0.00 | 0.00 | 0.00 | 69 | 1022.3 |
| 20260509171809 | 60 | 19 | 2.6 | 7.0 | 0.00 | 0.00 | 0.00 | 69 | 1022.3 |
| 20260509171737 | 60 | 19 | 2.6 | 7.0 | 0.00 | 0.00 | 0.00 | 69 | 1022.3 |
| 20260509171225 | 60 | 254 | 2.6 | 3.5 | 0.00 | 0.00 | 0.00 | 70 | 1022.2 |
| 20260509170737 | 60 | 282 | 1.7 | 3.5 | 0.00 | 0.00 | 0.00 | 70 | 1022.2 |
| 20260509170225 | 60 | 260 | 2.6 | 3.5 | 0.00 | 0.00 | 0.00 | 71 | 1022.0 |
| 20260509165811 | 60 | 290 | 0.9 | 5.2 | 0.00 | 0.00 | 0.00 | 71 | 1022.2 |
| 20260509165228 | 61 | 248 | 3.5 | 5.2 | 0.00 | 0.00 | 0.00 | 70 | 1022.5 |
| 20260509164736 | 61 | 304 | 1.7 | 3.5 | 0.00 | 0.00 | 0.00 | 70 | 1022.6 |
| 20260509164224 | 61 | 346 | 1.7 | 3.5 | 0.00 | 0.00 | 0.00 | 70 | 1022.7 |
| 20260509163811 | 60 | 109 | 0.9 | 2.6 | 0.00 | 0.00 | 0.00 | 69 | 1022.6 |
| 20260509163227 | 60 | 77 | 0.9 | 2.6 | 0.00 | 0.00 | 0.00 | 69 | 1022.6 |
| 20260509162734 | 60 | 195 | 0.9 | 1.7 | 0.00 | 0.00 | 0.00 | 69 | 1022.6 |
| 20260509162222 | 60 | 96 | 0.9 | 2.6 | 0.00 | 0.00 | 0.00 | 69 | 1022.5 |
| 20260509161730 | 60 | 49 | 0.0 | 3.5 | 0.00 | 0.00 | 0.00 | 71 | 1022.5 |
| 20260509161221 | 60 | 99 | 1.7 | 2.6 | 0.00 | 0.00 | 0.00 | 71 | 1022.7 |
| 20260509160729 | 59 | 102 | 0.0 | 1.7 | 0.00 | 0.00 | 0.00 | 72 | 1022.7 |
| 20260509160237 | 59 | 144 | 0.9 | 1.7 | 0.00 | 0.00 | 0.00 | 73 | 1022.7 |
| 20260509155724 | 58 | 105 | 0.9 | 1.7 | 0.00 | 0.00 | 0.00 | 73 | 1022.9 |
| 20260509155232 | 58 | 104 | 0.9 | 1.7 | 0.00 | 0.00 | 0.00 | 74 | 1022.8 |
| 20260509154740 | 58 | 355 | 0.0 | 1.7 | 0.00 | 0.00 | 0.00 | 74 | 1022.9 |
| 20260509154228 | 58 | 266 | 0.9 | 2.6 | 0.00 | 0.00 | 0.00 | 74 | 1022.9 |
| 20260509153736 | 58 | 113 | 0.9 | 2.6 | 0.00 | 0.00 | 0.00 | 75 | 1022.8 |
| 20260509153224 | 57 | 86 | 0.0 | 1.7 | 0.00 | 0.00 | 0.00 | 76 | 1022.8 |
| 20260509152731 | 57 | 119 | 0.0 | 1.7 | 0.00 | 0.00 | 0.00 | 76 | 1022.7 |
| 20260509152222 | 57 | 134 | 1.7 | 2.6 | 0.00 | 0.00 | 0.00 | 77 | 1022.7 |
| 20260509151809 | 57 | 120 | 0.9 | 2.6 | 0.00 | 0.00 | 0.00 | 76 | 1022.8 |
| 20260509151738 | 57 | 120 | 0.9 | 2.6 | 0.00 | 0.00 | 0.00 | 76 | 1022.8 |
| 20260509151226 | 56 | 190 | 0.0 | 1.7 | 0.00 | 0.00 | 0.00 | 79 | 1023.2 |
| 20260509150732 | 56 | 134 | 0.0 | 1.7 | 0.00 | 0.00 | 0.00 | 79 | 1023.2 |
| 20260509150226 | 56 | 89 | 0.0 | 1.7 | 0.00 | 0.00 | 0.00 | 80 | 1023.2 |
| 20260509145731 | 55 | 89 | 0.0 | 1.7 | 0.00 | 0.00 | 0.00 | 82 | 1023.3 |
| 20260509145259 | 54 | 89 | 0.0 | 2.6 | 0.00 | 0.00 | 0.00 | 83 | 1023.5 |
| 20260509144736 | 54 | 72 | 0.9 | 3.5 | 0.00 | 0.00 | 0.00 | 84 | 1023.4 |
| 20260509144304 | 53 | 94 | 0.9 | 3.5 | 0.00 | 0.00 | 0.00 | 85 | 1023.3 |
| 20260509143740 | 53 | 84 | 0.9 | 2.6 | 0.00 | 0.00 | 0.00 | 85 | 1023.3 |
| 20260509143228 | 53 | 84 | 0.9 | 1.7 | 0.00 | 0.00 | 0.00 | 85 | 1023.4 |
| 20260509142755 | 52 | 83 | 0.0 | 0.0 | 0.00 | 0.00 | 0.00 | 85 | 1023.4 |
| 20260509142723 | 52 | 83 | 0.0 | 0.0 | 0.00 | 0.00 | 0.00 | 85 | 1023.4 |
| 20260509142310 | 52 | 124 | 0.0 | 0.0 | 0.00 | 0.00 | 0.00 | 86 | 1023.4 |
| 20260509141727 | 51 | 194 | 0.0 | 0.0 | 0.00 | 0.00 | 0.00 | 86 | 1023.5 |
| 20260509141235 | 51 | 194 | 0.0 | 0.0 | 0.00 | 0.00 | 0.00 | 87 | 1023.5 |
| 20260509140727 | 50 | 194 | 0.0 | 0.0 | 0.00 | 0.00 | 0.00 | 88 | 1023.4 |
| 20260509140255 | 49 | 137 | 0.0 | 0.0 | 0.00 | 0.00 | 0.00 | 89 | 1023.5 |
| 20260509140223 | 49 | 137 | 0.0 | 0.0 | 0.00 | 0.00 | 0.00 | 89 | 1023.5 |
| 20260509135729 | 49 | 137 | 0.0 | 0.0 | 0.00 | 0.00 | 0.00 | 92 | 1023.4 |
| 20260509135237 | 48 | 137 | 0.0 | 0.0 | 0.00 | 0.00 | 0.00 | 92 | 1023.5 |
| 20260509134805 | 47 | 137 | 0.0 | 0.0 | 0.00 | 0.00 | 0.00 | 92 | 1023.5 |
| 20260509134733 | 47 | 137 | 0.0 | 0.0 | 0.00 | 0.00 | 0.00 | 92 | 1023.5 |
| 20260509134221 | 47 | 138 | 0.0 | 0.0 | 0.00 | 0.00 | 0.00 | 92 | 1023.6 |
| 20260509133809 | 46 | 137 | 0.0 | 0.0 | 0.00 | 0.00 | 0.00 | 93 | 1023.5 |
| 20260509133226 | 46 | 137 | 0.0 | 0.0 | 0.00 | 0.00 | 0.00 | 93 | 1023.5 |
| 20260509132733 | 46 | 138 | 0.0 | 0.0 | 0.00 | 0.00 | 0.00 | 93 | 1023.6 |
| 20260509132221 | 46 | 137 | 0.0 | 0.0 | 0.00 | 0.00 | 0.00 | 93 | 1023.6 |
| 20260509131729 | 46 | 138 | 0.0 | 0.0 | 0.00 | 0.00 | 0.00 | 93 | 1023.5 |
| 20260509131237 | 46 | 138 | 0.0 | 0.0 | 0.00 | 0.00 | 0.00 | 92 | 1023.5 |
| 20260509130725 | 46 | 137 | 0.0 | 0.0 | 0.00 | 0.00 | 0.00 | 92 | 1023.4 |
| 20260509130237 | 46 | 137 | 0.0 | 0.0 | 0.00 | 0.00 | 0.00 | 92 | 1023.3 |
| 20260509125724 | 46 | 137 | 0.0 | 0.0 | 0.00 | 0.00 | 0.00 | 93 | 1023.4 |
| 20260509125232 | 46 | 138 | 0.0 | 0.0 | 0.00 | 0.00 | 0.00 | 92 | 1023.4 |
| 20260509124800 | 46 | 137 | 0.0 | 0.0 | 0.00 | 0.00 | 0.00 | 92 | 1023.4 |
| 20260509124256 | 46 | 137 | 0.0 | 0.0 | 0.00 | 0.00 | 0.00 | 91 | 1023.3 |
| 20260509124224 | 46 | 137 | 0.0 | 0.0 | 0.00 | 0.00 | 0.00 | 91 | 1023.3 |
| 20260509123732 | 46 | 137 | 0.0 | 0.0 | 0.00 | 0.00 | 0.00 | 90 | 1023.3 |
| 20260509123239 | 46 | 137 | 0.0 | 0.0 | 0.00 | 0.00 | 0.00 | 90 | 1023.3 |
| 20260509122727 | 46 | 137 | 0.0 | 0.0 | 0.00 | 0.00 | 0.00 | 90 | 1023.4 |
| 20260509122233 | 47 | 137 | 0.0 | 0.0 | 0.00 | 0.00 | 0.00 | 90 | 1023.4 |
| 20260509121721 | 47 | 138 | 0.0 | 0.0 | 0.00 | 0.00 | 0.00 | 91 | 1023.5 |
| 20260509121229 | 47 | 137 | 0.0 | 0.0 | 0.00 | 0.00 | 0.00 | 90 | 1023.6 |
| 20260509120736 | 47 | 137 | 0.0 | 0.0 | 0.00 | 0.00 | 0.00 | 89 | 1023.6 |
| 20260509120228 | 48 | 137 | 0.0 | 0.0 | 0.00 | 0.00 | 0.00 | 90 | 1023.5 |
| 20260509115735 | 48 | 137 | 0.0 | 0.0 | 0.00 | 0.00 | 0.00 | 90 | 1023.5 |
| 20260509115223 | 48 | 137 | 0.0 | 0.0 | 0.00 | 0.00 | 0.00 | 89 | 1023.6 |
| 20260509114731 | 48 | 137 | 0.0 | 0.0 | 0.00 | 0.00 | 0.00 | 90 | 1023.6 |
| 20260509114239 | 48 | 137 | 0.0 | 0.0 | 0.00 | 0.00 | 0.00 | 90 | 1023.7 |
| 20260509113727 | 49 | 137 | 0.0 | 0.0 | 0.00 | 0.00 | 0.00 | 90 | 1023.6 |
| 20260509113235 | 49 | 137 | 0.0 | 0.0 | 0.00 | 0.00 | 0.00 | 91 | 1023.6 |
| 20260509112722 | 49 | 138 | 0.0 | 0.0 | 0.00 | 0.00 | 0.00 | 90 | 1023.6 |
| 20260509112230 | 49 | 137 | 0.0 | 0.0 | 0.00 | 0.00 | 0.00 | 90 | 1023.6 |
| 20260509111757 | 49 | 138 | 0.0 | 0.0 | 0.00 | 0.00 | 0.00 | 89 | 1023.6 |
| 20260509111254 | 49 | 137 | 0.0 | 0.0 | 0.00 | 0.00 | 0.00 | 88 | 1023.7 |
| 20260509110811 | 49 | 137 | 0.0 | 0.0 | 0.00 | 0.00 | 0.00 | 89 | 1023.8 |
| 20260509110307 | 50 | 137 | 0.0 | 0.0 | 0.00 | 0.00 | 0.00 | 89 | 1023.8 |
| 20260509105726 | 50 | 137 | 0.0 | 0.0 | 0.00 | 0.00 | 0.00 | 88 | 1023.7 |
| 20260509105234 | 50 | 137 | 0.0 | 0.0 | 0.00 | 0.00 | 0.00 | 88 | 1023.9 |
| 20260509104801 | 50 | 137 | 0.0 | 0.0 | 0.00 | 0.00 | 0.00 | 87 | 1023.9 |
| 20260509104256 | 51 | 137 | 0.0 | 0.0 | 0.00 | 0.00 | 0.00 | 87 | 1023.8 |
| 20260509103753 | 51 | 137 | 0.0 | 0.0 | 0.00 | 0.00 | 0.00 | 87 | 1023.9 |
| 20260509103229 | 51 | 137 | 0.0 | 0.0 | 0.00 | 0.00 | 0.00 | 86 | 1023.8 |
| 20260509102736 | 51 | 137 | 0.0 | 0.0 | 0.00 | 0.00 | 0.00 | 86 | 1023.9 |
| 20260509102305 | 52 | 137 | 0.0 | 0.0 | 0.00 | 0.00 | 0.00 | 86 | 1023.9 |
| 20260509101740 | 52 | 138 | 0.0 | 0.0 | 0.00 | 0.00 | 0.00 | 86 | 1023.8 |
| 20260509101228 | 52 | 137 | 0.0 | 0.0 | 0.00 | 0.00 | 0.00 | 85 | 1023.9 |
| 20260509100736 | 52 | 137 | 0.0 | 0.0 | 0.00 | 0.00 | 0.00 | 85 | 1023.8 |
| 20260509100303 | 52 | 137 | 0.0 | 0.0 | 0.00 | 0.00 | 0.00 | 85 | 1024.0 |
| 20260509095759 | 52 | 137 | 0.0 | 0.0 | 0.00 | 0.00 | 0.00 | 85 | 1024.1 |
| 20260509095727 | 52 | 137 | 0.0 | 0.0 | 0.00 | 0.00 | 0.00 | 85 | 1024.1 |
| 20260509095255 | 52 | 137 | 0.0 | 0.0 | 0.00 | 0.00 | 0.00 | 85 | 1024.0 |
| 20260509095223 | 52 | 137 | 0.0 | 0.0 | 0.00 | 0.00 | 0.00 | 85 | 1024.0 |
| 20260509094731 | 52 | 137 | 0.0 | 0.0 | 0.00 | 0.00 | 0.00 | 85 | 1024.0 |
| 20260509094239 | 52 | 137 | 0.0 | 0.0 | 0.00 | 0.00 | 0.00 | 85 | 1024.1 |
| 20260509093727 | 52 | 137 | 0.0 | 0.0 | 0.00 | 0.00 | 0.00 | 85 | 1024.1 |
| 20260509093235 | 52 | 137 | 0.0 | 0.0 | 0.00 | 0.00 | 0.00 | 84 | 1024.1 |
| 20260509092726 | 52 | 137 | 0.0 | 0.0 | 0.00 | 0.00 | 0.00 | 84 | 1024.1 |
| 20260509092253 | 52 | 137 | 0.0 | 0.0 | 0.00 | 0.00 | 0.00 | 84 | 1024.2 |
| 20260509091730 | 52 | 138 | 0.0 | 0.0 | 0.00 | 0.00 | 0.00 | 84 | 1024.2 |
| 20260509091258 | 52 | 137 | 0.0 | 0.0 | 0.00 | 0.00 | 0.00 | 84 | 1024.3 |
| 20260509090734 | 52 | 137 | 0.0 | 0.0 | 0.00 | 0.00 | 0.00 | 84 | 1024.3 |
| 20260509090222 | 52 | 137 | 0.0 | 0.0 | 0.00 | 0.00 | 0.00 | 84 | 1024.3 |
| 20260509085730 | 52 | 137 | 0.0 | 0.0 | 0.00 | 0.00 | 0.00 | 84 | 1024.3 |
| 20260509085237 | 52 | 137 | 0.0 | 0.0 | 0.00 | 0.00 | 0.00 | 84 | 1024.3 |
| 20260509084805 | 52 | 137 | 0.0 | 0.0 | 0.00 | 0.00 | 0.00 | 84 | 1024.3 |
| 20260509084221 | 52 | 137 | 0.0 | 0.0 | 0.00 | 0.00 | 0.00 | 84 | 1024.3 |
| 20260509083809 | 52 | 137 | 0.0 | 0.0 | 0.00 | 0.00 | 0.00 | 84 | 1024.4 |
| 20260509083737 | 52 | 137 | 0.0 | 0.0 | 0.00 | 0.00 | 0.00 | 84 | 1024.4 |
| 20260509083225 | 52 | 137 | 0.0 | 0.0 | 0.00 | 0.00 | 0.00 | 84 | 1024.4 |
| 20260509082732 | 52 | 138 | 0.0 | 0.0 | 0.00 | 0.00 | 0.00 | 84 | 1024.4 |
| 20260509082224 | 51 | 137 | 0.0 | 0.0 | 0.00 | 0.00 | 0.00 | 84 | 1024.4 |